logo
Search for airport 
image banner adimage banner adimage banner ad
image banner ad

LOGH - Graz Lkh

Located in District Graz(Stadt), Austria

ICAO - LOGH, IATA -

Data provided by Airmate  

General information

Coordinates: N47°4'48" E15°27'50"
Elevation is 1415 feet MSL.
 
View others Airports in Styria

Operational data

Special qualification required
Current time UTC:
Current local time:
Weather at : LOWG - Graz ( 10 km )
METAR: LOWG 081550Z AUTO 01002KT 9999 FEW001 M03/M04 Q1016 TEMPO 4000 BCFG BECMG BKN010
TAF: TAF AMD LOWG 081203Z 0812/0912 VRB03KT 8000 NSC TXM02/0912Z TNM04/0816Z BECMG 0816/0818 BKN006 TEMPO 0816/0910 0800 BCFG BKN003 PROB30 TEMPO 0904/0908 -SN PROB40 0909/0912 SCT006
View NOTAMs / SUP AIP / TFR affecting this airport [VIEW]
Communications frequencies: [VIEW]

Runways:

Airport contact information

Address: District Graz(Stadt) Austria

Satellite view of LOGH